Weather History for Hickory, NC

Change the Weather History Date:

Tuesday, March 5, 2013

  Actual Average Record
Temperature  
Mean Temperature 40 °F -  
Max Temperature 44 °F 60 °F 82 °F (1955)
Min Temperature 37 °F 37 °F 10 °F (1960)
Degree Days  
Heating Degree Days 24    
Moisture  
Dew Point 36 °F    
Average Humidity 84    
Maximum Humidity 100    
Minimum Humidity 35    
Precipitation  
Precipitation 0.61 in - - ()
Sea Level Pressure  
Sea Level Pressure 29.78 in    
Wind  
Wind Speed 3 mph (NNE)    
Max Wind Speed 14 mph    
Max Gust Speed -    
Visibility 6 miles    
Events Rain    
Averages and records for this station are not official NWS values.
T = Trace of Precipitation, MM = Missing Value Source: NWS Daily Summary

Daily Weather History Graph

Daily Weather History Graph

Search for Another Location

Airport:

Trip Planner

Search our weather history database for the weather conditions in past years. The results will help you decide how hot, cold, wet, or windy it might be!

Date:

Astronomy

Mar. 05, 2013 Rise Set
Actual Time 6:49 AM EST 6:24 PM EST
Civil Twilight 6:24 AM EST 6:50 PM EST
Nautical Twilight 5:54 AM EST 7:19 PM EST
Astronomical Twilight 5:25 AM EST 7:49 PM EST
Moon 1:52 AM EST (3/5) 12:10 PM EST (3/5)
Length of Visible Light 12h 25m
Length of Day
11h 34m
Last Quarter, 41% of the Moon is Illuminated
Mar 5
Last Quarter
Mar 11
New
Mar 19
First Quarter
Mar 27
Full
Apr 3
Last Quarter

Hourly Weather History & Observations

Time (EST) Temp. Windchill Dew Point Humidity Pressure Visibility Wind Dir Wind Speed Gust Speed Precip Events Conditions
12:53 AM 44.1 °F - 18.0 °F 35% 30.00 in 10.0 mi Calm Calm - N/A   Scattered Clouds
2:53 AM 39.0 °F - 23.0 °F 53% 29.99 in 10.0 mi Calm Calm - N/A   Clear
3:53 AM 37.0 °F - 28.0 °F 70% 29.98 in 10.0 mi Calm Calm - N/A   Clear
4:53 AM 37.9 °F 35.5 °F 25.0 °F 60% 29.97 in 10.0 mi NNE 3.5 mph - N/A   Clear
5:53 AM 37.9 °F - 28.0 °F 68% 29.96 in 10.0 mi Calm Calm - N/A   Clear
6:53 AM 39.0 °F - 24.1 °F 55% 29.96 in 10.0 mi Calm Calm - N/A   Scattered Clouds
8:53 AM 43.0 °F - 26.1 °F 51% 29.96 in 10.0 mi Calm Calm - 0.00 in Rain Light Rain
9:53 AM 39.0 °F 36.8 °F 34.0 °F 82% 29.96 in 4.0 mi NNE 3.5 mph - 0.04 in Rain Light Rain
10:53 AM 39.0 °F - 34.0 °F 82% 29.94 in 9.0 mi Calm Calm - 0.06 in Rain Light Rain
11:53 AM 39.9 °F - 36.0 °F 86% 29.92 in 10.0 mi Calm Calm - 0.02 in   Overcast
12:49 PM 41.0 °F - 37.4 °F 87% 29.90 in 6.0 mi Calm Calm - 0.00 in Rain Light Rain
12:53 PM 41.0 °F 39.0 °F 37.0 °F 86% 29.88 in 7.0 mi North 3.5 mph - 0.00 in Rain Light Rain
1:53 PM 42.1 °F - 37.0 °F 82% 29.85 in 10.0 mi Calm Calm - 0.01 in Rain Light Rain
2:13 PM 42.8 °F - 37.4 °F 81% 29.86 in 9.0 mi Calm Calm - 0.00 in Rain Light Rain
2:53 PM 43.0 °F 41.3 °F 39.0 °F 86% 29.83 in 8.0 mi NNE 3.5 mph - 0.00 in Rain Light Rain
3:32 PM 42.8 °F 39.3 °F 39.2 °F 87% 29.83 in 2.0 mi NNE 5.8 mph - 0.00 in Rain Light Rain
3:53 PM 42.1 °F 39.2 °F 39.0 °F 89% 29.80 in 2.0 mi NNE 4.6 mph - 0.00 in   Overcast
4:32 PM 42.8 °F 39.3 °F 39.2 °F 87% 29.78 in 2.0 mi NNE 5.8 mph - N/A   Overcast
4:39 PM 42.8 °F 40.1 °F 39.2 °F 87% 29.77 in 1.2 mi NE 4.6 mph - N/A   Overcast
4:53 PM 42.1 °F 37.7 °F 39.9 °F 92% 29.75 in 1.8 mi ENE 6.9 mph - N/A   Overcast
5:02 PM 42.8 °F 39.3 °F 39.2 °F 87% 29.76 in 2.0 mi NE 5.8 mph - N/A   Overcast
5:17 PM 42.8 °F 38.6 °F 39.2 °F 87% 29.74 in 1.5 mi NE 6.9 mph - 0.01 in Rain Light Rain
5:53 PM 42.1 °F 36.6 °F 39.9 °F 92% 29.69 in 1.2 mi ENE 9.2 mph - 0.01 in   Overcast
6:23 PM 42.8 °F 38.6 °F 39.2 °F 87% 29.69 in 2.0 mi NNE 6.9 mph - 0.03 in Rain Rain
6:34 PM 42.8 °F 38.6 °F 39.2 °F 87% 29.70 in 1.5 mi North 6.9 mph - 0.09 in Rain Heavy Rain
6:53 PM 42.1 °F 36.1 °F 39.9 °F 92% 29.70 in 1.2 mi NW 10.4 mph - 0.23 in Rain Heavy Rain
7:34 PM 41.0 °F 38.0 °F 39.2 °F 93% 29.69 in 2.5 mi North 4.6 mph - 0.18 in Rain Light Rain
7:41 PM 41.0 °F 36.4 °F 39.2 °F 93% 29.68 in 5.0 mi NE 6.9 mph - 0.19 in Rain Light Rain
7:53 PM 41.0 °F 38.0 °F 39.0 °F 93% 29.64 in 7.0 mi NNE 4.6 mph - 0.19 in Rain Light Rain
8:10 PM 39.2 °F 33.0 °F 39.2 °F 100% 29.68 in 6.0 mi NW 9.2 mph - 0.00 in Rain Light Rain
8:38 PM 39.2 °F 34.2 °F 37.4 °F 93% 29.64 in 10.0 mi ENE 6.9 mph - 0.00 in Rain Light Rain
8:53 PM 41.0 °F 39.0 °F 39.0 °F 93% 29.62 in 9.0 mi ESE 3.5 mph - 0.00 in   Overcast
9:11 PM 39.2 °F - 39.2 °F 100% 29.62 in 6.0 mi Calm Calm - N/A   Overcast
9:53 PM 39.9 °F 34.5 °F 37.9 °F 93% 29.61 in 4.0 mi NW 8.1 mph - N/A   Overcast
10:07 PM 39.2 °F 31.2 °F 37.4 °F 93% 29.65 in 4.0 mi NW 13.8 mph - 0.01 in Rain Light Rain
10:20 PM 41.0 °F - 39.2 °F 93% 29.62 in 3.0 mi Calm Calm - 0.03 in Rain Heavy Rain
10:32 PM 41.0 °F - 39.2 °F 93% 29.62 in 4.0 mi Calm Calm - 0.04 in Rain Light Rain
10:53 PM 39.9 °F 37.8 °F 39.0 °F 97% 29.61 in 5.0 mi NNW 3.5 mph - 0.05 in Rain Light Rain
11:53 PM 39.9 °F 36.7 °F 37.9 °F 93% 29.60 in 6.0 mi NW 4.6 mph - 0.00 in   Overcast